Location: Newark
(42.7133°N, 87.7910°W)
Time: 20:39:58
(UTC+00:00)

SR - Pass Details

Date: 22 October 2019
Orbit: 574 x 882 km, 66.7° (Epoch: 18 November)

Event Time Altitude Azimuth Distance (km) Brightness Sun altitude
Rises 10:21:32 0° 337° (NNW) 3,429 ? -21.0°
Reaches altitude 10° 10:24:53 10° 356° (N) 2,522 ? -20.4°
Maximum altitude 10:28:46 18° 38° (NE) 2,042 ? -19.7°
Drops below altitude 10° 10:32:39 10° 79° (E) 2,542 ? -19.0°
Sets 10:36:02 0° 98° (E) 3,467 ? -18.4°
